Hourly Data Report for May 24, 2017

ATIKOKAN (AUT)
ONTARIO

48°45'40.000" N
91°37'41.000" W
389.30 m
6020LPQ
71747
WCH

Download Data

Hourly Data (May 2017)
Hourly Data Report for May 24, 2017
TIME
LST
Temp Definition
°C
Dew Point Definition
°C
Rel Hum Definition
%
Precip. Amount Definition
mm

Wind Dir Definition
10's deg

Wind Spd Definition
km/h
Visibility Definition
km
Stn Press Definition
kPa
Hmdx Definition


Wind Chill Definition


Weather Definition


00:00 4.8 3.8 94 0.0   0   96.66     LegendNANA
01:00 3.7 2.9 95 0.0   0   96.63     LegendNANA
02:00 2.0 1.4 96 0.0   0   96.62     LegendNANA
03:00 1.2 0.7 97 0.0 5 1   96.59     LegendNANA
04:00 0.2 -0.2 97 0.0   0   96.58     LegendNANA
05:00 0.9 0.6 98 0.0   0   96.57     LegendNANA
06:00 4.5 3.2 91 0.0   0   96.58     LegendNANA
07:00 10.0 5.1 72 0.0 12 2   96.57     LegendNANA
08:00 12.7 4.6 58 0.0 10 3   96.55     LegendNANA
09:00 14.9 2.9 44 0.0 10 7   96.49     LegendNANA
10:00 15.8 2.9 42 0.0 7 7   96.40     LegendNANA
11:00 17.3 1.7 35 0.0 10 8   96.33     LegendNANA
12:00 17.4 -4.0 23 0.0 4 9   96.27     LegendNANA
13:00 18.3 -1.3 27 0.0 10 8   96.21     LegendNANA
14:00 18.9 -1.6 25 0.0 13 10   96.16     LegendNANA
15:00 19.6 2.0 31 0.0 16 5   96.10     LegendNANA
16:00 19.2 0.9 29 0.0 11 10   96.09     LegendNANA
17:00 18.9 0.6 29 0.0 15 13   96.07     LegendNANA
18:00 18.6 0.2 29 0.0 14 9   96.05     LegendNANA
19:00 17.3 -0.1 31 0.0 18 10   96.08     LegendNANA
20:00 15.0 0.6 37 0.0 16 7   96.11     LegendNANA
21:00 10.5 0.5 50 0.0 14 3   96.18     LegendNANA
22:00 7.0 2.1 71 0.0 2 1   96.19     LegendNANA
23:00 5.1 2.1 81 0.0   0   96.21     LegendNANA

Notes on Data Quality.

Legend

  • E = Estimated
  • M = Missing
  • NA = Not Available*
  • [empty] = Indicates an unobserved value
Date modified: